CAPE
1252 1942 1866 2127 1902 1917 1742 1924 1670 2032 2406 2358 2207 1628 1562 1821 1938 1865 2052 2664 2318 1969 2156 2149 2102 1847 1577 1466 2098 1852 1457 1526 1466 1507 1466 1648 1599 2660 3082 3303 3094 3059 3234 2877 2916 2530 2644 2472 2938 2410 2576 2479 2403 2295 1991 2219 1733 1808 2168 2220 1900 1801 2068 2249 1968 1790 1750 1610 1569 966 967 1126 1400 1876 2170 2169 2160 2698 3118 2389 2430 2968 2888 2170 2340
1726 2036 1772 1944 2026 1904 1871 1866 1756 2120 2182 1775 2105 1739 1228 1518 1306 1552 1941 2956 2824 2600 2557 2562 2144 2118 1850 1750 1718 1799 1537 1598 1616 1602 1726 1707 2058 3141 3062 3075 3172 3184 3016 2801 2559 2478 2620 2097 2469 2266 2568 2218 2413 2602 2308 2678 2230 1941 1688 2108 1860 1897 1743 1692 2203 1780 1922 1286 1467 1270 1514 1307 1642 1444 1975 2268 2453 2461 2501 2085 2960 2814 3017 3144 2688
1418 1794 1884 1840 1877 1832 1731 1750 1924 2098 1870 1375 1649 1564 1388 1474 1443 1397 2070 2772 2643 2626 2889 2876 2462 2084 1844 2117 2299 2622 2744 3102 2328 2408 2421 2431 2309 2373 2937 3127 3056 3259 2906 2840 2603 2393 2450 2326 2321 2806 2356 2419 2428 2336 2555 2926 2616 2223 2056 1706 1813 1823 1770 1338 2112 1814 1554 1301 1580 1151 1204 1208 2129 1640 1791 2244 2295 2574 3011 2435 2350 2702 2436 3118 2462
1408 1652 1736 1996 1895 1762 1539 1566 1690 1874 1288 1511 1636 1480 1402 1422 1628 1659 2382 2596 2529 2580 2722 2200 1682 1854 1906 2334 2711 2603 2508 2328 2366 2348 2315 1882 1908 1831 2272 2861 2897 2186 1930 2093 2652 2266 2314 2311 2198 2442 2411 2056 2079 2436 2050 1936 2354 2466 2053 2154 1880 1723 1533 1073 1563 1858 1489 1493 1180 1228 1077 731 808 1498 1916 2245 2440 2628 2686 2621 2425 2351 2633 1828 1811
1589 1773 1640 1774 1820 1534 1804 1804 1905 1438 1477 1608 1711 1702 1585 1490 1600 1629 1652 1658 1790 2115 2470 1975 2072 2200 2589 2326 2301 2136 1810 1694 1992 2093 2065 2170 1939 1664 1646 2294 2264 2185 2676 2209 1976 1829 2344 2879 2600 2556 2157 2386 2470 2236 1952 1714 1289 1630 1981 2282 1780 1960 1604 1906 2209 1678 1706 1068 1943 1247 1031 778 746 1392 1638 1849 2242 2619 2664 2514 2855 2976 2016 1409 1202
1432 1688 1600 1515 1594 1460 1674 1711 1537 1582 1674 1648 1490 1535 1678 1958 1584 1677 1611 1569 1784 1918 1930 1751 2075 2088 1958 1892 1668 1616 1632 1712 1827 1854 2052 1608 1368 1192 1914 2027 2042 2474 2782 2790 2158 2564 2659 2817 2669 2769 2564 2691 2764 1868 1908 1566 1460 1860 1972 1996 1811 1932 1757 1599 1854 2655 1786 2311 1592 1192 2218 1892 1774 1720 770 562 2182 2514 2690 2312 2992 2551 2100 1572 1376
1548 1708 1724 1375 1330 1695 1604 2020 1606 1866 1673 1762 1584 1940 2122 2225 1848 1738 1579 1778 1822 2060 2002 1570 1677 1852 1989 1752 1728 1762 1775 1960 2342 2152 2083 2354 1857 1958 2277 2358 2226 2296 2802 2410 2522 2932 2875 3448 3072 2466 2891 2959 2644 2662 2326 1650 1458 1864 1548 1549 1647 2342 2199 1846 1532 1460 2268 1575 1494 1149 1352 1360 1703 1521 1376 1041 1451 2457 2401 2662 2643 2918 2415 2364 1658
1663 1864 1500 1336 1354 1775 1738 1830 1712 1858 2100 1811 2142 2123 2080 2280 1724 1853 2225 2174 2243 2245 2030 1616 1682 1478 1395 1405 1734 1685 1684 2182 2044 2441 2054 2494 2348 1855 1826 2602 2257 2557 2781 2810 2908 2653 2861 3296 3242 3336 3166 2646 2584 2205 1920 1701 1389 1281 2153 2116 1920 2252 2208 1848 1744 1283 1803 1726 1187 1141 1355 1655 1322 1618 1912 1392 1306 1568 2104 2970 3276 2952 2466 2018 1829
1516 1444 1534 1512 1413 1678 1584 1589 1655 1919 1958 1884 2248 2095 2180 2346 2120 1988 2079 2364 2329 2128 1927 1574 1554 1341 1362 1250 1385 2120 1543 1512 2302 2209 2148 2156 1436 1368 1430 1106 1900 2732 2782 2632 2453 2763 2875 2896 2578 2770 2782 2426 2286 2037 1548 1330 1503 1912 2442 2425 2017 1826 2226 1610 2091 2201 1680 1249 1477 1200 866 980 1179 1543 1804 1690 1420 1302 1563 1948 2582 2578 2014 1820 1989
782 1101 1613 1568 1417 1622 1507 2031 2089 2087 1894 2126 2329 2412 2260 2032 2322 2216 2054 1985 2039 1967 1724 1342 1282 1083 1160 1272 1260 1409 1316 1171 1440 1637 2064 1732 1160 1208 893 1861 538 729 1995 1560 1334 1627 2050 2335 2328 1906 1830 1162 1345 789 975 1400 1624 1975 2134 2006 1812 1792 2105 1810 1915 2052 2007 1668 1370 1457 1924 1760 1414 1458 1667 1627 1543 1555 1535 1706 1948 2276 2262 2295 2139
915 1388 1846 1472 1671 1741 2429 1990 2504 2304 2172 2277 2394 2430 2010 2178 2564 2137 2177 2146 1776 1654 1270 1172 1288 1196 1302 957 1070 949 1310 1159 1590 1288 1553 991 571 267 732 592 328 240 482 1311 1284 467 864 1624 649 540 706 698 861 698 897 725 672 643 744 1353 1854 2081 2045 1985 1801 2153 2235 1918 1288 1280 1550 948 1522 1737 1176 1484 1207 1344 1499 1764 1632 1701 2010 2158 2883
1406 1733 2119 2110 1657 2096 2564 2566 2387 2656 3030 2704 2559 2254 2037 2158 2278 2069 1962 2074 2401 2137 1848 1847 1616 1473 1245 1066 1213 1262 1134 916 1394 1231 954 648 233 1265 1607 1592 1399 706 388 226 299 129 460 582 405 518 1134 1279 1324 960 969 889 1046 740 970 1376 1162 1923 2226 2524 2351 2234 1694 1764 1538 1356 1326 1342 1969 1245 1211 1301 1628 1449 2016 1830 1798 2446 2239 1818 1607
1588 1863 2125 2002 2087 1852 2073 2304 2779 2385 2577 2188 2405 2224 2132 2690 2088 2651 2391 2170 2269 2001 1766 1844 1782 1440 1623 1208 1139 1809 1129 585 1203 468 476 982 1196 689 1859 1661 976 1014 422 179 24 375 1162 1720 579 834 958 975 1579 1352 1484 1637 1346 908 1099 689 874 1369 1257 1422 1976 1853 2090 2172 1630 1130 1126 1210 1509 1706 1337 1212 1585 2338 2322 1907 1728 1667 2118 2226 2065
1392 1787 1978 1827 2088 1700 2309 2542 2246 2124 1938 1659 1965 2116 1852 2094 1949 1960 1920 2162 1917 1576 1571 1484 1247 1192 1088 1170 1065 732 1115 622 762 750 644 970 750 330 539 202 441 163 57 613 342 209 94 89 401 380 1230 1269 1351 1177 896 980 1139 1736 932 898 668 1436 1490 1409 1677 1463 1704 1496 1540 1312 1112 1072 1099 1590 1118 1061 1162 1387 1973 1854 1943 1723 1226 1154 1371
1700 2054 1939 2107 1712 2025 2210 1771 1567 1345 1308 1305 1580 1846 1736 1652 1823 1726 1640 1658 1682 1566 1591 1378 1179 998 822 764 734 1113 833 718 692 697 382 474 261 70 352 135 0 73 0 76 299 116 118 445 416 360 425 562 868 1114 408 526 1186 970 953 984 1287 1240 1322 1428 1243 1049 1317 1138 971 1126 1186 994 960 896 1322 1565 1406 1958 1502 1528 1504 1163 1532 1441 1178
1766 1966 2179 1905 1810 1453 1568 1786 1559 958 1420 1109 1156 1342 1150 1243 1561 1586 1436 1324 1432 1387 1336 1096 882 645 726 389 468 200 707 756 799 863 873 738 450 505 280 402 197 108 22 0 0 77 151 70 72 121 575 266 388 649 572 376 691 599 627 540 505 277 638 950 933 1137 1075 669 645 709 807 517 688 682 765 1234 2205 2039 1727 1404 1694 1452 1610 1344 1197
1788 1964 2080 1856 1231 1356 1561 1412 1256 1164 1042 1197 1556 1167 1214 1083 1186 1282 1093 936 642 852 864 848 885 583 347 481 517 538 454 200 734 321 225 426 476 430 273 21 26 162 0 0 12 14 50 113 80 58 310 249 169 254 192 346 661 457 74 665 542 221 624 761 639 659 632 500 627 426 416 478 654 822 1070 1205 1883 2376 1994 1751 1750 1681 1681 1241 1401
1558 1935 1936 1725 1454 1368 1205 1223 920 1008 899 764 800 863 1014 798 658 695 695 410 510 296 350 562 777 381 596 568 207 366 354 303 326 294 660 812 342 664 544 605 108 0 0 35 60 6 182 285 96 84 27 150 284 226 208 349 910 759 412 1120 364 840 728 626 431 370 426 360 269 263 457 394 508 546 654 951 1357 2424 2389 2242 2092 1706 1743 1426 1591
1802 1879 1700 1288 870 1226 1144 562 460 512 666 350 303 148 153 350 493 504 793 426 446 630 359 343 334 486 421 568 534 498 276 249 445 374 498 390 302 13 32 1 0 102 149 142 136 20 13 14 294 190 215 290 146 191 445 545 509 377 412 230 269 764 1179 1026 789 629 960 820 886 719 643 476 462 621 861 1118 1206 1440 1478 1752 1891 1800 1391 1278 1760
1627 1640 1408 1045 705 614 405 394 337 493 189 62 41 19 84 348 448 732 821 606 738 670 672 282 132 250 226 400 346 53 113 343 354 366 205 94 79 0 0 0 1 0 9 18 1 85 208 280 222 91 38 34 68 70 306 419 357 477 290 136 153 428 440 624 487 358 482 629 600 438 462 515 488 742 655 504 468 552 972 1578 1634 1563 1644 1697 1908
1298 1292 1167 566 706 372 378 280 379 316 128 68 41 90 78 193 353 424 614 157 518 682 226 448 1026 463 420 12 288 472 186 190 398 146 90 2 205 0 18 0 134 0 0 194 73 166 358 522 162 83 105 153 342 371 394 444 506 734 871 716 486 626 788 364 367 409 222 274 384 608 570 469 427 313 308 238 124 107 173 833 1577 1614 1689 1690 1772
962 648 595 372 317 338 361 217 194 186 66 116 19 24 8 26 82 135 26 266 393 675 664 618 592 762 286 8 238 262 363 394 268 299 151 8 0 60 3 2 2 345 313 92 75 0 44 65 44 285 306 251 362 751 488 330 298 432 508 148 122 302 542 642 690 664 617 488 451 610 638 306 217 128 7 4 6 21 55 68 101 524 1327 1732 1936
794 642 378 252 356 407 138 122 244 440 554 274 12 3 0 38 108 124 496 459 378 928 811 867 735 512 398 408 537 404 440 305 410 255 36 3 12 87 4 30 278 54 128 102 47 177 328 300 218 265 258 177 567 402 302 315 428 435 343 119 202 359 321 211 147 270 274 234 397 486 318 337 262 146 150 167 174 86 0 0 0 0 23 860 1616
986 602 214 594 596 422 458 236 360 722 625 420 599 133 234 573 416 605 738 428 1068 806 1017 860 559 569 442 377 437 549 289 511 416 436 199 30 11 254 329 176 278 152 24 43 200 292 518 673 502 367 192 515 265 358 375 332 349 350 393 425 356 427 238 250 285 314 284 508 738 689 435 200 342 458 508 440 260 280 281 223 169 162 145 94 168
923 684 646 926 902 780 710 440 820 802 382 892 828 440 439 248 485 490 1262 1103 1314 787 908 731 640 640 674 612 422 577 620 527 453 334 231 538 115 326 290 204 74 108 602 487 484 591 546 420 92 9 193 148 100 256 266 211 344 262 329 376 422 427 255 245 283 386 448 547 608 593 424 542 554 454 360 248 203 187 206 321 279 158 226 168 133
644 624 1175 905 1359 1676 1273 934 759 514 414 1079 953 530 582 674 906 758 1166 1436 1263 669 945 821 610 709 630 565 552 519 534 514 362 270 264 296 402 665 450 389 371 548 662 524 590 554 379 506 238 390 353 353 478 393 334 386 305 329 287 341 386 500 385 325 373 492 512 562 576 508 511 633 580 523 401 477 555 552 579 418 383 464 536 548 569
974 757 1425 1250 1814 1472 1433 957 429 712 1114 1360 1187 1163 886 999 1253 1362 1438 1316 1324 1194 1142 860 686 555 699 583 593 509 736 483 422 546 521 639 638 531 624 638 580 526 361 390 567 603 543 350 566 551 503 510 586 479 538 472 508 497 520 501 350 426 500 433 342 343 302 393 495 575 605 650 688 736 610 745 754 800 756 641 720 720 678 898 981
1679 1240 1640 1508 1660 1572 1484 1297 1027 1147 1676 1912 820 1056 1170 1146 1234 1646 1460 1480 1270 1341 1209 978 682 614 602 580 568 474 655 595 574 600 645 615 774 728 688 680 668 657 555 455 327 257 248 298 357 458 564 604 602 545 446 398 436 468 470 576 690 571 414 217 92 49 26 74 211 379 565 691 823 924 1055 1062 971 899 1074 966 1038 1280 1235 1130 1218
1066 1360 2004 1700 1402 2015 1658 1492 1519 1532 1735 1866 1804 1708 1782 1663 1626 1582 1596 1729 1616 1427 1372 1131 878 622 553 630 660 623 554 483 512 501 646 674 733 782 826 792 740 690 582 619 569 622 599 451 369 493 548 534 402 372 368 291 278 342 374 323 314 299 229 167 58 18 40 134 238 352 320 353 720 554 867 1123 900 1009 947 939 1091 1208 1352 1174 1200
698 950 1352 1632 1544 2077 1869 1682 1644 1374 1570 1692 1924 2179 2040 1859 1887 1650 1807 1782 1723 1564 1452 1228 1044 874 662 510 642 658 571 615 582 732 790 821 796 852 856 792 728 775 768 778 804 777 743 636 699 744 653 533 470 458 430 584 299 264 341 341 303 313 280 205 119 32 10 18 57 170 412 322 800 951 970 1072 1225 1407 1531 1415 1226 1247 1342 1320 1278
768 1314 1724 1881 1848 1992 2032 1862 1626 1459 1442 1442 1698 1944 1967 1779 1940 1825 1905 1880 1653 1648 1540 1371 1086 788 745 578 889 680 636 631 702 808 863 903 857 808 834 834 770 680 829 852 795 758 652 706 714 648 638 534 467 367 292 257 300 404 380 507 458 338 238 171 75 7 0 0 0 11 131 193 483 624 866 966 1317 1831 1962 1815 1768 1686 1655 1479 1351
1146 1102 1587 1852 1828 1971 2106 1863 1775 1859 1654 1647 1786 1868 1776 1732 1889 1977 1852 1903 1718 1705 1630 1519 1230 958 722 614 773 633 610 673 722 780 896 765 816 805 848 828 731 603 781 603 559 597 569 584 434 561 604 492 316 205 114 10 24 146 276 304 156 46 34 56 20 3 1 0 0 4 22 92 177 423 620 667 657 578 756 920 1142 1658 1860 1884 1900
1493 1700 1943 2064 1854 1997 2264 2052 1600 1507 1805 1849 1920 1842 1764 1756 1839 1983 1926 1897 1818 1845 1721 1540 1239 967 700 672 646 611 574 741 727 948 847 876 969 798 824 833 642 564 612 749 705 610 499 377 288 393 387 218 157 123 11 10 11 38 89 82 98 96 80 50 27 18 13 12 16 38 45 64 96 143 463 596 729 807 672 665 599 505 650 1765 1759
1641 1676 1649 1949 2261 2279 2256 2546 2510 1880 1556 1706 1622 1795 1828 1843 1882 2134 2042 2034 2010 1836 1786 1720 1448 1097 992 698 644 600 654 654 847 883 931 984 816 859 799 937 764 725 685 622 465 497 357 450 341 347 406 282 216 126 22 15 20 30 36 299 75 112 107 58 87 92 52 42 62 104 138 175 210 274 325 390 406 548 689 744 770 766 982 932 776
1403 1583 1225 1611 2036 2154 2270 2445 2292 1867 1328 1528 1816 1867 1972 1989 2106 2206 2200 2102 1983 1872 2319 1856 1788 1428 1245 700 688 615 597 660 834 877 814 804 820 868 939 871 850 762 616 516 525 353 252 244 219 256 168 66 28 9 3 4 6 13 19 452 81 90 85 100 117 104 98 91 142 203 280 338 387 474 546 602 662 676 690 682 650 627 677 795 873
1161 1507 1612 1776 1428 2556 1832 2097 2216 2443 1937 1470 1710 2006 2063 2212 2141 2114 2058 2085 1940 2027 1637 1572 1459 1288 1062 834 709 634 662 732 734 777 694 795 772 815 716 718 660 636 626 444 257 114 74 66 55 24 33 38 64 10 2 1 0 2 11 220 190 117 92 75 69 92 117 188 301 449 518 513 477 492 574 664 623 774 757 757 779 716 638 662 728
1252 1032 1674 3047 2873 2926 2205 2674 3047 2455 2264 1406 1323 1090 1046 1076 1622 1886 2128 1982 1817 1840 1673 1627 1512 1192 849 784 756 718 710 783 800 714 704 694 694 681 626 620 557 452 356 129 61 28 22 76 177 155 44 42 13 14 0 0 0 1 58 132 151 136 143 139 142 159 205 284 358 394 416 424 425 415 556 336 301 690 666 588 512 532 523 503 564
808 1340 2599 3017 2767 2244 2187 2306 3148 2713 1975 1492 1112 1112 1000 850 948 1800 1932 2078 1887 1750 1614 1708 1442 1151 872 908 832 778 846 787 711 760 658 685 750 663 639 494 372 284 166 127 72 38 96 76 11 5 3 14 5 3 0 0 9 15 140 106 148 186 147 156 157 220 271 324 375 507 394 470 548 518 279 285 248 418 476 557 484 424 412 460 502
1501 1799 2346 2600 2877 2524 2296 2019 2228 2143 1998 1857 1494 1196 1165 973 1239 944 1106 1793 1732 1806 1808 1596 1254 957 1136 943 850 816 766 661 588 592 545 595 589 510 383 382 342 160 40 38 6 0 0 16 57 133 63 94 28 26 13 17 17 13 207 174 257 289 187 149 141 156 212 271 329 349 382 522 422 70 24 22 24 0 62 43 139 206 282 325 436
1540 2368 2720 2697 2290 2061 1998 2034 1930 1728 1694 1784 1742 1452 1106 1021 1043 634 844 1251 1526 1717 1700 1421 1286 1291 1118 1218 903 639 618 584 538 495 636 637 426 387 247 153 140 5 1 9 37 4 31 43 87 162 164 160 170 177 197 64 28 10 2 237 238 208 147 128 102 126 121 179 240 327 348 242 7 2 106 2 0 3 58 0 0 1 65 215 323
1952 2202 2302 2428 2067 1869 1752 1595 1721 1769 1701 1535 1244 1324 1194 914 774 840 848 1424 1534 1638 1471 1214 1189 871 724 675 773 571 555 490 467 416 382 337 324 216 132 94 74 106 71 96 105 150 126 146 201 260 263 299 265 262 290 70 17 6 0 62 204 246 102 74 77 78 46 48 82 103 109 205 143 56 0 0 0 0 0 12 18 15 0 7 0
1894 1748 1898 1836 1842 1977 2034 2075 1988 1539 1446 1490 1374 1172 1156 862 709 936 1429 1503 1390 1295 1362 1204 742 686 648 576 524 431 364 295 218 260 219 202 173 92 6 27 138 182 180 146 156 199 195 174 202 250 281 376 404 343 397 253 38 2 8 12 144 222 238 162 110 68 30 27 92 153 156 188 0 0 0 0 0 0 0 0 0 0 0 0 0
1650 1349 1192 1402 1614 1608 1662 1496 1468 1627 1612 1244 1325 1390 1139 914 1068 1060 1064 1235 1080 888 764 740 650 609 594 488 395 370 199 68 49 134 165 92 107 108 99 132 142 223 233 195 196 170 177 194 187 244 296 320 349 412 342 311 156 36 8 10 6 64 24 221 95 22 20 24 38 58 91 96 0 0 0 0 0 0 0 0 0 0 0 0 0
1215 1379 1304 1264 1135 1150 1034 1264 787 1506 1788 1672 1644 1334 1254 1040 765 686 583 656 696 633 511 462 471 466 379 323 179 119 30 124 181 262 26 67 136 217 284 533 338 376 402 315 300 274 225 179 151 167 249 271 239 311 284 287 241 101 52 25 0 0 0 0 36 30 22 40 43 34 39 0 0 0 0 0 0 0 0 0 0 0 0 0 0
980 1069 940 790 747 912 1411 1399 1348 1257 1304 1681 1491 1444 1168 892 659 629 497 354 314 390 300 276 217 175 103 67 13 50 131 29 0 0 1 54 130 86 236 336 273 257 284 280 282 74 96 72 99 109 92 117 172 179 195 236 156 48 10 6 0 0 1 1 2 27 24 24 10 0 0 0 0 0 0 0 0 0 0 0 0 0 0 0 2
1033 1041 741 792 806 954 1111 1162 1123 1001 1182 1602 1254 1036 752 540 485 602 487 438 405 358 312 169 107 28 168 0 0 0 0 0 0 1 138 151 18 38 91 180 139 142 130 163 100 30 22 13 18 20 27 35 36 37 41 108 237 54 21 2 6 7 0 26 71 82 22 2 0 2 4 0 0 0 2 1 0 0 0 0 0 0 0 0 4
1073 1016 1187 1010 837 912 945 991 960 962 991 808 552 443 515 652 852 428 286 276 108 235 116 16 4 0 0 0 0 1 0 0 0 3 0 0 4 8 5 67 66 14 11 40 14 7 6 4 10 19 32 34 16 9 12 88 298 66 0 0 0 0 0 1 10 19 20 23 20 13 10 0 0 0 0 0 0 1 2 5 4 4 6 12 17
1177 1049 937 898 979 862 733 762 856 594 545 499 579 631 448 519 248 314 161 196 146 6 3 0 0 0 2 0 1 1 0 0 0 0 0 0 5 2 0 6 2 0 0 0 0 0 1 8 10 12 19 30 34 14 10 39 46 16 0 0 0 0 0 0 0 0 6 7 2 2 2 0 0 0 0 6 7 11 10 9 4 3 3 11 18
1207 1364 1268 1274 890 825 832 729 692 678 639 599 524 470 549 484 380 302 527 217 59 20 52 0 0 0 0 2 0 0 0 0 0 0 6 146 130 0 2 0 0 0 0 0 0 0 4 3 4 7 12 9 12 9 11 0 1 0 0 1 0 0 0 0 0 3 2 2 2 2 1 0 0 3 4 4 4 6 6 5 7 8 3 3 14
1021 999 876 876 932 888 814 808 780 760 650 710 522 492 590 421 394 358 320 316 205 100 0 0 0 0 0 0 0 0 0 0 0 0 0 0 23 0 0 0 0 1 19 0 0 2 2 2 2 2 4 7 2 0 0 0 0 0 0 0 0 0 0 0 0 0 0 1 0 2 2 1 2 3 4 4 4 4 4 4 5 6 6 11 25
662 716 760 890 861 830 765 759 760 867 757 766 664 450 468 379 466 225 178 270 134 122 2 0 0 0 0 0 0 0 0 61 5 0 0 0 0 0 0 0 0 0 0 0 0 0 0 0 21 15 4 0 0 0 0 0 0 0 0 0 0 0 2 0 0 0 0 1 2 2 1 2 2 3 4 7 5 4 7 16 15 10 12 12 21
Wind_Speed
10 14 13 10 8 8 8 7 8 10 14 17 19 25 23 16 17 15 16 19 18 18 17 17 17 17 17 15 14 14 13 12 9 7 9 8 7 5 3 4 5 5 4 4 5 6 6 6 7 7 11 10 7 5 3 5 4 5 5 8 6 8 9 10 9 10 11 9 8 8 10 7 5 6 6 5 4 6 8 8 8 7 6 5 7
9 12 12 10 6 6 6 6 6 9 14 18 18 25 20 8 17 17 18 17 16 16 17 16 16 16 16 14 13 11 10 7 3 1 3 6 13 12 11 9 8 7 7 7 7 9 9 9 12 12 12 12 13 11 7 5 3 1 0 3 7 6 6 7 11 11 10 9 9 8 10 10 7 5 4 6 6 8 13 9 8 8 9 7 7
8 11 11 9 8 6 4 4 5 8 15 16 16 20 14 9 13 15 12 13 13 16 17 17 18 16 15 12 9 8 6 6 7 8 7 7 14 16 13 10 9 9 9 10 10 11 12 11 11 10 10 12 14 14 12 11 8 7 5 3 1 4 4 5 11 8 10 11 12 11 9 9 11 8 6 4 5 7 12 11 8 7 6 10 9
8 10 12 12 11 9 7 5 4 9 12 13 14 16 5 1 4 6 5 7 9 10 14 15 15 14 10 7 8 10 11 12 11 12 12 12 16 17 13 10 11 12 11 11 10 11 12 12 12 10 12 11 15 14 13 13 10 10 8 6 6 5 5 5 6 11 10 13 11 9 11 11 8 7 7 7 7 5 9 11 12 7 8 12 13
7 9 10 11 11 10 8 6 4 6 5 8 10 8 8 7 4 5 6 6 2 3 6 8 8 6 6 9 14 14 15 14 12 12 11 13 16 15 14 12 11 10 9 11 8 10 12 9 11 12 12 15 15 15 15 15 10 5 8 7 8 8 7 7 9 10 10 11 9 10 10 10 8 10 10 9 10 6 6 9 10 12 11 11 11
5 8 9 10 10 9 10 10 9 8 5 5 2 8 11 8 6 7 6 6 4 6 7 3 3 5 6 9 12 13 13 11 11 11 12 13 14 15 12 9 9 9 8 5 8 10 10 13 13 12 14 14 15 14 13 12 10 8 9 10 10 11 10 9 10 12 11 13 13 9 7 8 10 10 13 8 11 7 7 7 8 9 12 12 13
7 6 7 9 9 10 11 10 11 12 11 9 12 16 16 11 10 10 8 7 7 8 7 8 8 10 10 12 12 12 10 10 11 10 11 12 9 11 10 6 8 9 7 8 9 9 8 9 9 12 12 12 12 12 12 11 10 10 11 11 11 9 11 11 11 12 12 13 14 14 12 9 8 11 9 8 8 11 9 9 8 9 11 13 13
4 6 7 7 8 10 11 11 10 10 14 16 15 15 14 12 12 12 10 9 9 7 5 7 11 13 15 15 14 12 10 9 10 9 10 10 12 6 11 6 7 7 8 7 9 7 7 7 10 9 8 9 8 10 10 9 9 9 11 11 11 12 13 13 12 11 11 11 11 12 13 12 11 11 11 10 7 9 11 11 11 11 11 11 12
3 6 8 7 6 8 9 10 10 10 11 13 12 12 10 10 11 11 10 10 8 6 5 5 9 12 13 14 12 8 9 9 8 8 7 13 8 7 7 7 6 7 8 9 7 7 6 7 6 7 8 8 8 9 8 7 7 7 11 11 11 13 14 13 13 13 13 11 11 13 14 14 14 10 12 11 10 9 8 11 12 14 12 11 12
3 3 6 5 4 6 7 6 8 9 10 10 10 9 6 6 8 8 8 9 8 7 5 6 8 9 11 12 12 9 6 8 4 6 8 6 9 6 4 5 8 5 7 6 2 5 6 7 8 9 9 8 7 6 8 9 9 8 9 12 14 14 12 13 14 13 11 15 15 11 11 11 12 13 13 12 10 10 9 9 12 14 13 13 14
5 0 4 1 5 3 2 6 6 7 8 10 10 10 8 6 5 5 5 7 8 7 5 5 6 6 7 7 7 6 5 5 4 3 4 5 6 7 4 6 7 7 5 3 6 4 6 8 5 2 1 3 5 4 4 3 4 5 7 9 11 12 11 11 12 14 14 13 13 15 14 13 14 13 12 13 14 11 11 10 10 11 12 12 15
10 8 5 4 3 4 1 3 5 5 5 7 9 9 8 6 5 9 8 7 6 6 5 5 6 6 6 6 4 3 3 4 3 2 2 5 4 1 2 2 2 3 3 3 3 4 5 6 5 6 7 5 5 5 5 5 6 6 8 10 12 14 15 14 14 13 12 14 13 14 13 12 14 16 14 13 14 11 9 9 10 11 11 11 13
12 10 9 12 9 6 1 3 4 5 4 7 9 10 6 6 8 6 7 9 8 7 7 7 6 4 1 2 4 4 4 5 4 4 1 1 2 3 2 5 3 3 5 4 nan 8 6 8 8 11 11 10 9 9 10 10 10 9 10 9 11 13 15 15 17 16 16 16 15 15 16 18 18 18 16 10 9 12 13 10 9 10 10 12 13
16 3 5 3 1 7 3 2 4 7 7 8 10 11 13 12 12 11 9 6 5 4 3 2 1 3 3 3 4 3 4 4 4 5 4 5 2 3 2 3 5 3 nan 9 10 7 nan nan 7 7 10 11 11 11 11 12 13 13 12 12 12 15 16 15 15 16 16 15 16 16 15 16 17 20 21 19 16 14 14 13 11 11 9 8 12
7 11 5 4 1 4 3 4 5 7 9 9 8 10 10 11 10 10 10 8 6 5 3 3 4 4 4 3 4 4 4 3 6 6 5 6 5 nan 7 6 nan nan nan nan 11 9 8 9 10 10 10 11 12 13 11 13 15 14 15 14 15 15 17 19 19 17 17 17 17 18 18 18 18 16 19 20 18 16 15 13 13 10 10 10 10
7 6 9 4 5 5 5 5 6 7 10 10 12 11 12 11 11 11 11 10 9 7 6 6 5 5 5 5 6 6 5 7 6 5 5 5 8 7 7 6 7 9 nan nan nan nan 13 nan nan 11 14 13 12 12 13 13 15 15 16 18 17 19 19 19 20 21 21 20 19 19 19 18 19 18 18 18 22 21 19 17 16 14 15 11 12
10 10 7 5 4 6 5 6 7 10 9 12 12 12 14 13 13 13 12 12 11 10 10 9 9 9 7 7 7 8 8 6 8 9 10 9 9 9 9 nan nan 9 nan nan nan nan nan 15 nan nan 15 16 14 14 13 15 16 17 nan 19 18 18 19 20 21 20 20 20 21 19 21 21 22 22 21 22 23 24 23 21 20 18 21 17 15
13 12 9 6 6 5 6 6 10 9 12 14 12 14 13 13 14 14 14 15 13 14 13 12 12 11 11 10 11 10 10 12 10 11 12 10 11 11 11 14 12 nan nan nan nan nan 18 19 nan nan nan 16 16 16 17 18 20 20 20 21 21 23 23 24 24 23 22 22 21 21 21 22 22 22 24 24 24 25 25 24 22 22 25 21 18
15 12 11 5 5 7 5 8 11 11 14 13 15 16 16 15 14 14 14 15 13 14 15 15 11 13 14 14 15 14 14 14 14 14 12 12 11 nan nan nan nan 17 19 21 20 nan nan nan 20 19 20 20 21 23 24 24 24 24 23 23 23 25 25 25 25 24 25 26 26 24 24 24 24 24 25 25 26 27 26 25 25 26 26 24 20
13 13 11 8 7 6 7 10 12 14 13 nan nan nan nan 17 15 15 15 15 15 16 17 14 17 17 16 17 18 nan 17 15 18 17 15 nan nan nan nan nan nan nan nan nan nan nan 21 22 21 nan nan nan nan nan 26 26 26 26 26 26 25 26 24 25 26 26 26 27 27 25 25 25 25 26 26 26 27 28 29 28 27 27 26 26 26
9 10 9 10 7 5 9 11 14 13 12 nan nan nan nan 17 16 16 16 17 15 17 16 14 20 18 18 nan 19 20 19 20 20 20 nan nan 17 nan nan nan 24 nan nan 25 nan 21 21 24 26 nan 30 29 29 28 28 28 29 29 29 29 27 27 27 26 27 25 25 26 27 27 27 27 27 25 27 26 25 25 27 32 33 31 29 29 27
7 6 8 10 7 7 11 14 14 13 nan 17 nan nan nan nan nan 16 nan 17 16 16 17 16 17 19 19 nan 20 21 21 21 20 19 19 nan nan nan nan nan nan 25 25 nan nan nan nan nan nan 32 30 30 29 30 31 32 30 30 29 28 27 27 28 28 28 27 27 27 27 27 27 26 27 26 nan nan nan nan nan nan 29 34 35 32 32
9 9 8 12 9 9 13 16 15 14 16 14 nan nan nan nan 17 16 17 18 17 18 17 17 17 19 18 20 20 19 22 21 22 20 nan nan nan nan nan nan 26 nan 24 25 nan 27 29 31 32 30 28 28 32 33 33 32 31 30 29 27 27 27 27 25 25 26 26 28 27 28 27 27 27 27 28 28 27 nan nan nan nan nan nan 35 36
11 9 12 12 12 11 15 16 15 14 14 11 18 19 19 18 16 14 18 16 19 18 18 17 17 18 18 19 20 20 20 21 20 21 19 nan nan 24 25 25 25 25 nan nan 29 29 29 29 29 27 29 34 33 32 33 32 31 30 29 28 27 27 25 25 25 25 25 27 28 28 27 27 30 30 30 30 31 31 32 34 32 33 34 nan 34
8 8 10 12 11 11 13 14 13 11 12 10 17 17 17 16 15 15 19 18 19 17 18 17 16 18 17 16 18 21 20 20 19 20 20 21 23 25 26 26 nan 26 28 28 30 29 28 29 nan nan 30 31 30 31 31 31 31 30 29 28 28 28 27 26 25 26 26 28 29 29 29 30 32 31 31 31 32 31 34 36 35 36 36 34 35
9 7 9 11 7 10 11 12 10 10 10 10 13 15 15 14 14 15 17 19 18 18 18 16 17 16 18 17 17 19 19 18 19 21 21 24 25 26 26 27 28 29 28 28 29 29 29 28 27 27 28 29 30 31 31 30 29 30 29 29 29 29 29 29 30 31 31 31 30 30 31 33 32 32 32 34 35 35 36 35 35 37 37 38 37
4 1 4 7 6 10 10 11 10 10 9 10 10 13 13 14 12 15 18 17 16 17 18 16 19 16 20 19 19 19 20 19 20 22 24 24 25 26 26 27 27 27 26 26 27 27 29 28 28 27 29 28 28 29 29 29 29 30 30 30 29 30 31 33 33 32 32 31 31 31 32 33 33 34 34 35 35 36 37 36 37 37 39 41 40
4 2 4 6 6 9 9 10 8 9 12 9 11 12 13 15 12 15 18 18 15 17 17 17 16 18 18 19 18 18 19 20 21 22 22 22 23 23 24 24 25 25 25 25 25 25 26 27 27 27 27 28 28 28 28 28 28 29 30 31 32 33 35 34 nan nan nan nan 29 29 30 31 33 34 36 37 38 38 40 39 39 40 40 39 38
1 3 6 4 5 7 7 8 7 11 13 11 10 12 12 13 14 14 16 16 17 16 17 16 15 14 15 18 19 17 18 19 20 21 21 21 22 22 23 24 24 25 25 26 26 26 26 25 25 26 26 26 26 27 28 29 29 31 33 33 32 31 32 32 nan nan nan 29 29 28 28 29 28 26 27 31 33 34 37 37 38 39 39 39 38
5 4 3 3 4 6 8 9 7 12 13 13 11 13 14 14 13 15 15 17 17 17 17 17 16 16 16 17 18 18 18 19 19 20 20 21 22 22 22 23 23 24 24 25 25 26 26 25 25 25 25 26 27 29 26 22 22 29 33 34 33 32 32 33 32 nan nan nan nan 28 28 22 23 23 24 25 28 30 32 34 37 38 38 38 38
7 3 4 4 5 6 8 10 9 12 14 13 13 13 15 15 14 15 16 17 17 18 18 18 17 16 17 17 18 18 18 18 18 20 20 20 21 22 22 22 23 23 24 25 25 25 25 25 25 25 25 26 28 29 24 23 25 27 31 34 34 34 33 33 nan nan nan nan nan nan 31 28 28 29 31 28 30 32 32 31 31 32 35 37 37
13 10 8 9 8 8 9 11 10 10 13 14 14 15 15 16 16 16 17 18 19 19 20 19 18 18 17 17 18 18 18 18 19 20 21 21 22 22 22 23 23 23 24 24 24 24 24 24 25 26 27 27 28 27 27 nan nan 35 34 35 35 nan nan nan nan nan nan nan nan nan nan nan 33 32 33 34 32 30 30 31 31 33 33 33 34
17 15 12 11 10 8 8 10 11 10 12 14 15 15 16 17 18 19 19 20 20 20 21 21 21 19 17 18 20 19 19 19 20 21 21 22 22 23 23 23 22 23 24 24 24 24 24 24 25 27 28 29 30 28 nan nan nan nan nan nan nan nan nan nan nan nan nan nan nan nan nan nan nan 26 30 35 36 36 33 31 30 29 31 35 36
10 9 12 11 8 6 7 7 9 10 11 14 16 17 18 19 20 21 21 20 20 20 21 22 23 21 19 20 21 21 20 21 22 22 22 22 23 23 23 24 24 24 24 24 23 24 25 27 28 29 30 31 31 29 nan nan nan nan nan 37 nan 35 35 nan nan nan nan nan nan 33 33 34 35 35 35 35 36 37 39 39 39 40 40 36 34
10 10 10 9 9 11 11 12 14 14 15 16 18 19 18 18 19 20 19 20 19 20 22 23 24 23 21 22 22 21 21 22 23 23 23 23 24 24 24 24 25 24 25 25 25 26 28 29 30 31 31 nan nan nan nan nan nan nan nan 36 nan nan nan 35 34 35 nan nan 35 34 34 35 36 37 38 37 39 39 39 39 39 39 39 39 39
9 10 10 11 16 13 16 16 16 16 15 17 18 20 20 18 18 18 18 18 20 23 25 24 24 24 23 24 22 23 23 23 23 23 24 24 24 25 24 25 25 25 26 26 27 29 nan nan nan nan nan nan nan nan nan nan nan nan nan 39 39 38 nan nan nan nan 37 38 37 37 38 37 37 38 37 36 36 40 41 40 39 40 40 40 39
8 13 11 12 14 12 12 12 15 17 17 20 25 25 19 15 14 17 17 20 23 25 28 28 27 25 25 24 24 24 23 23 24 24 24 24 24 25 25 26 26 26 26 27 nan nan nan nan 33 35 nan nan nan nan nan nan nan nan nan 40 40 39 39 38 38 38 38 38 38 38 37 37 37 38 36 39 43 41 40 39 39 38 39 39 39
14 12 13 13 13 14 11 12 14 25 27 21 22 22 24 22 19 21 21 23 25 27 27 28 27 27 25 25 25 24 24 24 24 24 24 24 24 26 27 28 27 27 28 30 nan nan nan nan nan nan nan nan nan nan nan nan nan nan 44 42 41 41 40 39 39 39 39 39 37 32 33 38 39 39 46 53 50 47 44 42 41 39 39 39 40
12 13 14 13 13 12 9 10 19 25 23 27 27 26 27 26 24 22 18 25 26 27 28 28 27 26 25 26 25 25 24 24 24 24 24 24 26 27 27 28 29 30 nan nan nan nan nan nan nan 34 nan nan nan nan nan nan nan nan 45 43 42 42 42 42 41 40 41 40 40 39 35 38 49 nan nan nan nan nan nan nan 45 44 41 39 41
14 14 13 15 22 17 8 10 16 21 25 27 29 28 29 29 27 26 23 27 28 29 28 27 26 27 27 26 26 25 25 25 24 25 25 27 27 27 28 29 31 nan nan nan nan nan nan nan nan 34 35 35 35 36 36 nan nan nan nan 44 43 42 41 42 42 41 40 40 40 42 41 54 nan nan 53 nan nan nan nan nan nan nan nan 40 46
15 15 15 18 24 27 26 28 24 26 28 31 33 33 33 33 31 28 28 29 30 30 30 28 26 26 26 26 26 26 26 25 26 26 27 27 28 28 30 nan nan 35 nan nan 34 34 33 34 35 36 37 37 38 37 37 nan nan nan nan nan 42 41 41 nan nan nan nan nan nan 41 40 51 51 nan nan nan nan nan nan nan nan nan nan nan nan
21 17 14 15 17 21 24 25 23 21 25 28 32 33 32 35 33 33 33 32 31 30 30 29 27 27 27 27 27 27 27 27 28 28 28 28 30 nan nan nan 35 35 34 34 33 34 34 35 36 36 37 37 38 36 39 39 nan nan nan nan 42 41 41 41 39 nan nan nan nan 38 38 41 nan nan nan nan nan nan nan nan nan nan nan nan nan
18 18 15 17 20 21 21 22 21 23 24 27 32 31 29 29 31 33 33 32 32 31 30 30 29 29 29 27 29 28 29 nan nan 28 30 nan 33 34 nan 36 35 35 34 34 34 34 34 35 35 36 38 38 39 39 39 39 38 nan nan nan nan nan nan 40 nan nan nan nan nan nan nan nan nan nan nan nan nan nan nan nan nan nan nan nan nan
18 20 20 20 23 19 14 21 27 26 29 29 31 29 29 30 30 30 33 32 32 31 31 31 31 31 29 30 30 31 nan 30 30 31 nan nan 35 36 36 35 36 34 34 34 34 35 35 35 35 36 37 38 39 39 38 38 42 42 nan nan nan nan nan nan nan nan nan nan nan nan nan nan nan nan nan nan nan nan nan nan nan nan nan nan nan
21 21 23 21 17 21 25 28 29 30 30 29 29 31 31 31 29 29 29 30 31 31 30 30 30 30 30 nan nan nan 31 nan nan nan nan nan 35 nan 33 34 35 34 34 34 34 nan nan nan nan 36 nan 36 37 38 39 39 44 nan nan nan nan nan nan nan nan nan nan nan nan nan nan nan nan nan nan nan nan nan nan nan nan nan nan nan nan
21 22 28 28 28 30 33 33 32 32 30 29 30 30 31 30 30 31 31 31 31 30 30 30 29 nan 29 nan nan nan nan nan nan nan 35 36 nan nan nan 32 33 33 34 34 nan nan nan nan nan nan nan nan nan nan nan 40 48 nan nan nan nan nan nan nan nan nan nan nan nan nan nan nan nan nan nan nan nan nan nan nan nan nan nan nan nan
31 34 37 35 34 33 34 33 32 31 31 30 30 28 29 29 30 32 33 30 29 29 29 nan nan nan nan nan nan nan nan nan nan nan nan nan nan nan nan nan nan nan nan nan nan nan nan nan nan nan nan nan nan nan nan nan 45 nan nan nan nan nan nan nan nan nan nan nan nan nan nan nan nan nan nan nan nan nan nan nan nan nan nan nan nan
34 34 33 32 32 32 33 32 30 29 30 30 30 30 29 29 29 29 30 29 30 nan nan nan nan nan nan nan nan nan nan nan nan nan nan nan nan nan nan nan nan nan nan nan nan nan nan nan nan nan nan nan nan nan nan nan nan nan nan nan nan nan nan nan nan nan nan nan nan nan nan nan nan nan nan nan nan nan nan nan nan nan nan nan nan
31 30 28 27 28 30 31 31 30 29 30 30 31 31 31 32 31 30 29 29 nan nan nan nan nan nan nan nan nan nan nan nan nan nan nan 30 35 nan nan nan nan nan nan nan nan nan nan nan nan nan nan nan nan nan nan nan nan nan nan nan nan nan nan nan nan nan nan nan nan nan nan nan nan nan nan nan nan nan nan nan nan nan nan nan nan
29 28 29 29 28 30 31 31 31 31 31 31 31 31 30 30 30 29 29 29 29 nan nan nan nan nan nan nan nan nan nan nan nan nan nan nan nan nan nan nan nan nan nan nan nan nan nan nan nan nan nan nan nan nan nan nan nan nan nan nan nan nan nan nan nan nan nan nan nan nan nan nan nan nan nan nan nan nan nan nan nan nan nan nan nan
29 29 28 28 29 31 32 33 32 31 32 31 31 31 30 31 31 30 29 31 30 30 nan nan nan nan nan nan nan nan nan nan nan nan nan nan nan nan nan nan nan nan nan nan nan nan nan nan nan nan nan nan nan nan nan nan nan nan nan nan nan nan nan nan nan nan nan nan nan nan nan nan nan nan nan nan nan nan nan nan nan nan nan nan nan
Wind_Direction
335 324 318 307 300 295 295 282 274 274 267 261 255 256 262 252 251 251 250 258 260 262 269 273 272 264 255 255 258 258 256 266 271 261 237 212 151 169 141 114 99 97 80 52 33 43 44 48 33 35 42 44 48 63 167 200 233 254 251 276 278 291 295 292 289 288 288 289 289 283 275 286 304 316 301 270 259 260 241 215 222 252 248 258 239
348 344 335 327 313 301 292 281 279 280 257 255 257 257 268 269 262 256 252 260 267 270 270 270 269 264 260 265 262 258 263 263 257 136 161 135 119 127 118 109 103 88 72 57 59 50 48 41 42 39 43 55 59 57 71 75 47 25 229 274 305 296 291 308 286 291 295 292 289 282 291 295 304 298 314 315 307 276 264 236 228 235 248 253 262
17 18 3 4 357 344 319 297 292 283 266 266 269 264 275 266 258 265 268 276 272 270 272 269 267 265 261 258 253 230 195 185 147 127 127 106 106 109 107 100 92 81 70 67 56 61 55 56 61 47 57 63 66 67 69 69 65 65 54 50 343 326 312 292 295 308 297 282 275 269 264 270 281 283 288 297 292 277 277 286 256 245 281 274 261
21 32 42 34 25 19 10 340 319 275 267 279 278 279 339 24 294 290 302 292 281 274 281 275 268 260 244 213 178 154 141 128 118 113 112 109 102 98 96 89 82 81 76 72 72 70 58 56 66 63 58 70 74 67 71 79 66 58 64 57 45 49 21 296 331 333 318 305 294 292 282 272 257 271 284 281 290 289 291 285 283 282 263 250 242
25 29 42 51 49 40 31 21 325 280 255 253 267 323 34 30 8 4 20 18 2 341 315 284 250 224 178 162 158 141 134 132 124 122 120 113 107 102 95 90 83 83 83 78 73 69 72 59 61 64 66 66 68 69 66 72 85 70 55 50 46 54 57 357 8 4 343 336 313 296 291 288 293 283 291 289 291 292 301 291 289 288 279 275 273
52 38 36 43 49 42 35 25 5 336 302 279 238 42 38 22 16 33 37 46 74 53 30 56 123 142 134 131 132 132 128 124 118 116 124 108 106 113 103 72 82 89 86 83 74 67 60 56 49 55 62 55 59 72 82 82 74 48 50 46 40 38 46 36 22 8 4 354 359 356 311 296 292 279 268 255 267 287 272 293 302 299 287 284 272
101 62 42 38 30 26 25 26 15 353 340 327 8 31 24 16 23 33 48 54 68 56 54 93 119 123 132 130 126 123 123 120 121 139 127 114 88 93 113 125 114 104 85 77 76 71 64 67 75 56 55 57 61 62 66 69 64 36 42 39 45 34 26 29 31 28 8 12 13 12 8 2 342 313 310 285 272 275 281 288 287 283 280 282 283
80 83 59 45 28 28 16 17 14 6 347 352 359 17 16 10 31 41 52 56 47 61 62 118 140 141 138 131 122 114 112 126 127 119 113 116 136 132 104 104 94 81 76 60 57 57 58 60 51 64 64 69 63 64 64 63 57 32 22 32 22 24 23 24 29 27 3 20 27 30 18 7 11 359 330 326 303 289 288 282 277 284 282 285 290
10 66 76 59 40 27 21 14 4 359 354 357 358 8 11 10 27 45 59 64 82 65 85 117 129 124 116 114 113 128 143 133 148 133 126 115 94 103 106 109 78 59 63 51 41 41 31 41 50 47 50 51 39 49 52 58 63 28 13 10 14 24 21 18 20 16 14 10 3 18 30 4 5 2 350 347 341 326 316 305 295 288 286 286 287
321 109 87 88 48 41 24 353 352 357 358 349 344 343 357 28 31 36 58 73 74 72 74 76 101 125 111 123 138 150 150 132 116 111 113 129 125 104 105 101 110 104 32 73 60 32 23 19 21 31 36 36 30 31 24 20 23 15 13 8 12 18 12 4 9 3 356 360 2 2 350 3 359 358 350 350 1 357 348 322 309 304 297 288 290
259 219 125 146 102 35 13 357 358 354 353 336 328 337 350 21 10 42 58 83 73 76 74 70 79 88 106 111 119 123 123 126 150 149 122 98 109 136 182 174 150 127 149 26 29 24 11 359 354 334 318 18 14 8 20 352 347 358 1 350 357 5 4 354 358 357 353 349 352 354 3 357 353 351 353 356 360 5 359 351 327 322 314 296 294
229 215 196 157 141 164 20 357 352 334 332 341 322 314 316 346 11 12 17 48 56 64 79 73 83 77 75 83 83 116 140 134 128 135 152 158 143 214 209 148 75 123 140 86 26 26 289 279 307 338 342 322 315 317 324 331 338 343 337 339 344 343 344 343 345 341 348 345 349 341 348 349 334 347 345 1 1 1 356 345 330 314 313 313 299
242 196 195 189 171 151 63 350 332 314 330 317 310 305 297 333 1 11 352 346 22 27 39 55 44 57 123 185 198 190 191 161 195 161 164 136 201 186 342 359 357 4 11 32 nan 255 277 316 328 326 329 329 320 319 326 329 334 333 332 338 335 335 332 332 332 336 336 336 339 339 340 335 338 324 334 339 347 344 336 339 338 323 324 312 316
260 233 200 240 199 106 90 353 304 307 315 312 313 316 331 336 342 342 344 344 346 355 0 7 229 205 208 214 223 198 203 170 214 155 213 256 302 345 256 247 257 328 nan 272 271 266 nan nan 299 297 297 302 308 313 320 329 329 325 324 323 323 320 317 318 320 322 325 332 328 325 326 326 327 328 326 337 339 335 328 331 329 325 330 320 307
234 289 293 347 340 25 20 330 319 312 306 309 302 300 317 316 319 319 321 323 325 327 330 289 245 238 226 223 237 193 240 246 221 218 220 221 231 nan 253 256 nan nan nan nan 288 314 316 295 282 296 304 306 316 322 322 317 310 313 317 316 313 316 318 318 319 319 316 319 321 322 322 322 321 323 323 325 327 322 321 317 308 310 310 309 305
259 267 299 326 336 357 329 314 319 311 304 312 301 312 308 305 308 312 313 312 307 311 293 279 276 265 252 243 244 240 219 240 278 293 288 293 265 260 272 304 300 272 nan nan nan nan 273 nan nan 284 279 283 290 295 301 305 310 316 320 322 322 317 316 312 310 313 315 315 313 311 311 312 311 312 311 309 309 308 303 304 307 309 307 303 299
267 261 264 299 285 294 303 308 307 302 314 305 313 320 300 306 307 303 302 301 305 301 292 285 279 276 278 272 258 282 284 274 256 255 262 263 285 293 282 nan nan 302 nan nan nan nan nan 274 nan nan 273 278 282 286 290 298 300 301 nan 308 308 308 304 299 297 297 300 301 302 305 305 305 307 307 307 306 305 303 307 309 309 309 303 303 293
251 250 250 252 273 293 295 297 295 302 299 304 300 288 295 296 302 301 302 301 300 299 298 295 290 295 282 282 284 273 268 279 281 268 267 272 280 294 292 279 268 nan nan nan nan nan 270 265 nan nan nan 281 289 295 293 293 294 296 297 300 302 306 310 309 306 302 299 296 296 295 294 294 296 298 297 294 294 296 299 301 300 298 293 297 297
226 233 241 254 260 273 279 288 287 295 287 300 301 298 298 294 294 301 297 299 304 295 292 289 300 287 285 283 275 274 275 273 270 283 283 287 282 nan nan nan nan 263 270 273 273 nan nan nan 280 286 285 285 279 275 275 280 283 289 290 294 298 299 295 293 293 294 296 295 294 294 294 294 292 292 291 290 294 297 298 298 299 299 301 304 302
215 221 225 234 257 279 293 281 289 287 298 nan nan nan nan 294 299 294 295 295 295 293 293 304 295 285 289 286 291 nan 285 282 285 277 277 nan nan nan nan nan nan nan nan nan nan nan 284 283 287 nan nan nan nan nan 281 284 288 291 293 293 294 294 295 295 294 295 294 293 292 292 293 293 292 291 292 295 299 302 302 300 298 296 295 297 295
225 232 224 239 251 281 280 284 283 288 290 nan nan nan nan 295 296 294 297 301 295 288 291 278 272 277 275 nan 289 288 282 277 270 271 nan nan 285 nan nan nan 274 nan nan 273 nan 282 292 292 282 nan 274 277 282 283 286 289 288 287 287 287 288 291 292 292 292 290 288 287 287 286 285 285 283 285 288 290 289 289 291 296 300 299 296 294 293
292 260 247 251 253 271 278 273 273 278 nan 281 nan nan nan nan nan 300 nan 290 293 290 282 277 276 277 281 nan 264 271 275 275 277 276 273 nan nan nan nan nan nan 274 274 nan nan nan nan nan nan 273 277 281 286 289 284 281 281 283 283 285 288 290 290 288 289 289 287 287 287 287 287 285 285 286 nan nan nan nan nan nan 285 291 296 295 294
319 318 305 290 277 266 278 277 276 274 268 278 nan nan nan nan 291 296 291 293 296 287 284 282 285 282 280 277 272 273 277 277 275 276 nan nan nan nan nan nan 274 nan 282 282 nan 269 270 271 274 280 284 289 285 281 282 283 283 283 284 284 285 283 286 287 287 287 285 283 282 282 281 280 280 279 278 276 275 nan nan nan nan nan nan 287 290
332 336 308 283 274 275 269 275 275 268 271 273 265 267 270 272 283 285 287 288 280 282 282 282 282 282 281 282 285 287 281 279 283 282 282 nan nan 280 278 279 283 284 nan nan 274 274 276 278 281 287 286 282 281 283 284 285 285 286 286 286 287 286 284 283 280 278 278 280 279 275 272 275 277 276 275 275 276 274 271 270 268 270 271 nan 271
356 344 302 294 287 281 276 278 273 276 279 265 265 269 271 278 279 281 274 277 275 277 281 281 282 283 283 284 287 282 283 284 283 286 284 282 285 287 286 283 nan 279 278 279 281 279 282 283 nan nan 280 282 284 287 289 289 290 289 289 288 288 287 285 283 282 281 278 277 276 276 274 271 269 269 270 273 272 270 271 270 270 270 270 269 272
15 10 308 314 302 285 284 282 292 305 296 278 271 274 278 276 277 276 269 275 276 281 280 283 285 290 289 291 282 282 287 287 287 287 285 284 282 280 281 282 280 278 278 278 282 285 283 285 287 288 289 290 291 292 291 292 292 292 293 292 292 290 287 284 282 279 278 277 277 276 275 274 272 271 271 269 267 266 266 268 268 267 267 267 266
50 22 277 301 288 293 295 295 315 313 299 281 288 281 284 284 286 287 282 278 282 284 285 288 288 287 288 289 286 290 288 287 284 280 281 282 281 280 279 279 280 284 286 288 288 293 298 298 298 294 288 287 288 288 292 295 297 295 294 292 289 288 286 281 279 277 274 274 274 275 275 275 273 272 270 269 268 268 268 265 265 265 264 263 262
149 164 260 302 288 286 295 299 304 297 295 287 299 291 289 292 292 282 288 287 290 287 287 288 288 290 290 289 290 286 282 284 283 283 282 282 283 284 286 287 289 291 292 293 293 290 289 290 290 293 294 292 292 291 290 291 293 294 293 291 289 285 282 281 nan nan nan nan 276 274 273 273 274 275 273 270 270 269 269 267 267 266 266 265 265
102 220 245 258 287 270 289 303 304 299 305 308 304 299 293 291 295 289 293 294 295 293 292 294 293 293 293 293 292 292 297 297 295 292 291 292 292 294 294 295 296 295 294 294 294 294 294 295 294 292 291 291 291 292 290 289 288 287 286 286 286 286 286 286 nan nan nan 281 279 279 278 277 275 274 277 280 279 278 273 272 272 271 269 269 268
18 340 304 277 289 278 299 310 313 308 310 311 306 300 299 300 299 299 299 298 296 300 299 299 301 301 301 299 297 298 295 295 295 293 295 296 298 297 296 296 296 294 294 294 294 294 295 294 293 292 293 293 291 289 289 290 293 289 290 292 292 291 289 288 287 nan nan nan nan 278 277 271 272 271 271 273 278 281 281 278 274 273 272 270 269
357 42 337 293 292 297 301 313 319 310 313 307 302 300 300 304 303 303 302 300 301 302 303 304 306 308 308 306 303 304 301 300 297 299 301 301 301 300 299 297 295 295 295 294 295 296 296 294 292 291 291 292 292 291 297 305 296 293 292 291 290 289 289 288 nan nan nan nan nan nan 274 270 268 268 269 267 270 275 277 278 279 278 277 276 272
349 5 349 339 340 330 321 324 321 310 310 305 304 305 306 309 309 309 306 304 306 306 309 309 312 314 316 313 310 308 308 304 302 304 305 304 302 301 300 298 297 295 296 294 293 291 290 291 294 295 296 297 297 299 299 nan nan 297 297 294 292 nan nan nan nan nan nan nan nan nan nan nan 271 269 269 269 267 263 264 266 269 275 278 278 278
350 350 343 345 345 339 331 329 326 319 311 317 315 313 316 314 315 312 307 309 312 312 313 315 317 318 318 318 316 314 310 308 307 306 305 304 302 301 300 298 297 295 293 294 292 292 294 296 298 299 299 296 294 291 nan nan nan nan nan nan nan nan nan nan nan nan nan nan nan nan nan nan nan 270 270 272 271 269 266 264 263 262 269 274 275
347 331 338 341 332 340 351 340 324 322 321 319 322 322 318 314 312 307 309 310 313 317 317 317 318 321 324 321 317 314 313 313 311 310 309 306 304 301 300 300 298 296 294 294 295 297 297 297 296 296 296 297 296 294 nan nan nan nan nan 303 nan 295 292 nan nan nan nan nan nan 282 281 280 279 278 276 273 271 269 267 266 265 265 266 265 264
340 316 330 343 352 356 2 356 349 340 327 322 319 314 306 303 302 303 305 310 316 318 312 319 323 325 326 321 320 316 314 312 312 311 308 306 304 302 301 299 298 297 296 295 295 296 298 298 297 297 297 nan nan nan nan nan nan nan nan 302 nan nan nan 290 289 287 nan nan 285 283 282 279 277 276 274 270 268 268 268 267 266 265 264 263 263
330 326 342 355 358 357 9 356 347 332 319 311 305 297 294 287 289 292 301 312 317 313 315 321 327 326 326 325 322 318 315 314 313 311 308 305 304 303 301 298 297 297 298 298 298 299 nan nan nan nan nan nan nan nan nan nan nan nan nan 298 297 296 nan nan nan nan 287 286 286 283 280 278 276 274 271 267 267 268 269 268 267 265 263 263 263
346 351 354 336 333 328 332 336 337 328 298 262 249 247 246 255 285 292 308 319 319 318 320 326 325 327 327 326 321 318 317 316 312 308 305 303 302 300 298 296 297 297 297 299 nan nan nan nan 302 298 nan nan nan nan nan nan nan nan nan 297 295 294 293 291 290 289 288 286 285 282 280 278 275 274 271 266 264 263 268 266 264 262 262 262 261
11 317 310 319 323 305 306 297 296 269 270 296 302 306 304 307 317 317 322 325 323 320 323 325 326 327 327 321 320 320 318 313 308 305 302 301 299 299 297 296 298 299 301 300 nan nan nan nan nan nan nan nan nan nan nan nan nan nan 303 299 297 296 295 294 292 291 290 288 287 284 280 279 277 275 268 268 265 265 267 266 266 263 261 261 261
302 307 315 330 293 269 249 251 263 280 313 310 317 321 312 311 308 304 324 325 327 323 324 325 324 322 320 321 324 321 315 309 305 303 303 302 300 298 300 302 303 302 nan nan nan nan nan nan nan 299 nan nan nan nan nan nan nan nan 304 299 299 297 296 295 291 290 288 286 284 282 279 276 277 nan nan nan nan nan nan nan 261 261 261 260 261
296 298 300 291 283 285 297 297 297 318 306 312 310 316 314 313 314 321 325 328 330 326 325 323 324 326 326 324 319 313 307 305 304 305 305 303 301 304 304 303 305 nan nan nan nan nan nan nan nan 305 305 305 304 303 300 nan nan nan nan 302 299 298 295 294 292 290 288 287 285 283 280 281 nan nan 274 nan nan nan nan nan nan nan nan 261 259
290 290 305 306 308 316 325 321 324 326 325 321 321 320 318 315 319 327 327 325 325 323 322 323 327 324 322 318 310 306 305 306 308 307 304 305 306 306 307 nan nan 306 nan nan 307 307 308 308 307 307 307 307 306 305 304 nan nan nan nan nan 300 298 296 nan nan nan nan nan nan 284 280 283 282 nan nan nan nan nan nan nan nan nan nan nan nan
272 271 277 291 293 295 296 296 300 310 318 324 320 316 320 325 327 325 322 322 321 322 322 324 324 320 314 312 308 308 310 309 308 307 309 310 310 nan nan nan 308 309 309 307 308 309 309 309 308 308 307 307 307 306 304 302 nan nan nan nan 304 301 298 294 292 nan nan nan nan 283 282 286 nan nan nan nan nan nan nan nan nan nan nan nan nan
286 286 284 293 290 292 301 296 310 327 326 316 312 314 321 322 319 319 319 320 321 321 320 318 317 315 313 313 311 312 310 nan nan 313 314 nan 314 314 nan 312 312 311 311 311 310 310 310 310 309 308 307 305 303 302 302 301 302 nan nan nan nan nan nan 295 nan nan nan nan nan nan nan nan nan nan nan nan nan nan nan nan nan nan nan nan nan
293 284 281 277 279 281 297 329 329 319 311 313 315 319 315 311 312 318 320 320 317 315 317 318 317 315 317 316 313 312 nan 317 317 315 nan nan 316 315 314 314 312 311 312 312 312 311 311 310 308 307 306 304 303 302 300 297 299 297 nan nan nan nan nan nan nan nan nan nan nan nan nan nan nan nan nan nan nan nan nan nan nan nan nan nan nan
267 273 276 277 300 331 334 319 312 315 310 310 311 310 310 310 312 312 310 312 313 313 313 311 312 313 316 nan nan nan 317 nan nan nan nan nan 315 nan 311 311 309 311 310 311 310 nan nan nan nan 305 nan 302 301 300 299 297 290 nan nan nan nan nan nan nan nan nan nan nan nan nan nan nan nan nan nan nan nan nan nan nan nan nan nan nan nan
291 303 315 327 338 334 322 316 315 310 310 308 311 310 310 312 311 310 309 309 309 309 311 309 313 nan 317 nan nan nan nan nan nan nan 314 310 nan nan nan 308 311 310 310 311 nan nan nan nan nan nan nan nan nan nan nan 302 300 nan nan nan nan nan nan nan nan nan nan nan nan nan nan nan nan nan nan nan nan nan nan nan nan nan nan nan nan
333 329 326 325 326 318 312 311 310 308 308 308 305 307 309 314 313 309 304 304 305 309 309 nan nan nan nan nan nan nan nan nan nan nan nan nan nan nan nan nan nan nan nan nan nan nan nan nan nan nan nan nan nan nan nan nan 307 nan nan nan nan nan nan nan nan nan nan nan nan nan nan nan nan nan nan nan nan nan nan nan nan nan nan nan nan
318 315 318 318 316 312 309 308 304 303 304 305 305 304 302 298 294 294 297 301 301 nan nan nan nan nan nan nan nan nan nan nan nan nan nan nan nan nan nan nan nan nan nan nan nan nan nan nan nan nan nan nan nan nan nan nan nan nan nan nan nan nan nan nan nan nan nan nan nan nan nan nan nan nan nan nan nan nan nan nan nan nan nan nan nan
307 305 305 305 305 303 301 301 300 301 302 302 302 303 301 298 295 295 295 296 nan nan nan nan nan nan nan nan nan nan nan nan nan nan nan 309 307 nan nan nan nan nan nan nan nan nan nan nan nan nan nan nan nan nan nan nan nan nan nan nan nan nan nan nan nan nan nan nan nan nan nan nan nan nan nan nan nan nan nan nan nan nan nan nan nan
302 303 302 301 300 299 298 297 299 301 300 299 297 297 296 294 295 296 297 298 298 nan nan nan nan nan nan nan nan nan nan nan nan nan nan nan nan nan nan nan nan nan nan nan nan nan nan nan nan nan nan nan nan nan nan nan nan nan nan nan nan nan nan nan nan nan nan nan nan nan nan nan nan nan nan nan nan nan nan nan nan nan nan nan nan
302 301 299 298 297 297 296 297 298 299 300 299 298 297 298 297 297 297 297 299 297 298 nan nan nan nan nan nan nan nan nan nan nan nan nan nan nan nan nan nan nan nan nan nan nan nan nan nan nan nan nan nan nan nan nan nan nan nan nan nan nan nan nan nan nan nan nan nan nan nan nan nan nan nan nan nan nan nan nan nan nan nan nan nan nan